Weather in Kiren

Russia / Republic of Buryatia     51°40′56″N   102°07′50″E
temp.,
°C
wind,
m/s
gust,
m/s
humid.,
%
clouds,
%
prec.,
mm/h
press.,
hPa
HPBL,
m
21 june, mon
mon2123:00+15w11725 0.0 100311
02:00+13w117235 0.0 100411
05:00+12nw00816 0.0 100411
08:00+17ene11665 0.0 1004216
11:00+24e21445 0.0 1001508
14:00+29ese11335 0.0 997871
17:00+21ne6853100 0.2 1001585
20:00+17s2478100 1.8 1004175
22 june, tue
tue2223:00+14ssw1186100 0.4 100714
02:00+13nne2290100 0.4 100840
05:00+13ene3690100 0.6 1009331
08:00+12ene2589100 1.0 1010352
11:00+11e1393100 2.6 1011265
14:00+11s1194100 5.8 1011201
17:00+10wnw1197100 2.4 101298
20:00+11ese009568 2.6 101188
23 june, wed
wed2323:00+9s0097100 0.0 101215
02:00+8ene0097100 0.0 101110
05:00+8ne119685 0.0 101116
08:00+12e018923 0.0 1010202
11:00+20ese025970 0.0 1007524
14:00+25ese224482 0.0 1004831
17:00+26e2242100 0.0 1002723
20:00+22ene236336 0.1 100438
24 june, thu
thu2423:00+15nne2287100 1.1 100833
02:00+14ne1193100 3.1 101020
05:00+13n0194100 0.8 100917
08:00+15sw1189100 0.9 1008238
11:00+15wsw4595100 2.0 1007325
14:00+15s1288100 8.2 1007155
17:00+17ene227687 0.3 1006407
20:00+16ene1283100 0.4 1006106
25 june, fri
fri2523:00+12w009481 0.0 100811
02:00+12wsw1196100 0.0 100816
05:00+11sse019749 0.0 100817
08:00+14e118833 0.0 1009233
11:00+20nne01615 0.0 1007728
14:00+24e21440 0.0 10051111
17:00+25e22390 0.0 10041074
20:00+21e36675 0.0 1005192